Temperature
26 27 28 29 29 29 29 29 29 30 30 29 30 30 29 27 26 26 24 23 22 20 19 18 18 17 17 17 17 17 17 17 17 17 17 17 17 17 17 17 17 17 16 16
27 27 29 29 29 28 28 28 29 30 30 29 29 29 29 28 26 25 24 23 22 21 19 18 18 17 17 17 17 17 17 17 17 17 17 17 17 17 17 17 17 17 16 16
27 29 29 28 28 27 28 28 29 29 29 29 29 29 29 28 26 25 24 23 22 21 20 19 18 18 17 17 17 17 17 17 17 17 17 17 17 17 17 17 17 16 16 16
28 29 28 28 28 28 28 29 29 29 29 29 29 28 29 28 27 26 25 24 23 21 20 19 18 18 17 17 17 17 17 17 17 17 17 17 17 17 17 17 17 17 16 16
28 28 28 27 28 28 29 29 28 29 28 29 29 28 29 28 28 27 26 24 23 22 20 19 18 18 17 17 17 17 17 17 17 17 17 17 17 17 17 17 17 17 16 16
29 29 28 29 29 29 29 28 28 28 29 28 28 28 29 29 28 28 26 24 22 21 20 19 18 18 17 17 17 17 17 17 17 17 17 17 17 17 17 17 17 17 16 16
27 28 29 29 28 28 28 28 27 27 27 28 28 28 29 29 28 28 27 25 22 21 20 19 18 18 17 17 17 17 16 17 17 17 17 17 17 17 17 17 17 17 16 16
27 27 29 29 28 29 28 28 27 27 27 28 28 28 29 29 27 26 25 24 22 21 20 19 18 18 17 17 17 17 16 17 17 17 17 17 17 17 17 17 17 17 16 16
28 28 29 29 29 29 28 28 30 28 28 28 28 29 29 28 27 26 25 24 23 22 20 20 19 18 18 17 17 17 17 17 17 17 17 17 17 17 17 17 17 16 16 16
28 27 28 29 29 28 29 29 28 28 26 26 28 28 29 28 28 27 26 25 24 22 21 20 19 19 18 18 17 17 17 17 17 17 17 17 17 17 17 17 17 16 16 16
28 27 28 28 28 28 27 28 28 28 28 27 27 28 29 29 28 28 27 25 24 23 22 20 19 19 18 18 17 17 17 17 17 17 17 17 17 17 17 17 17 17 17 16
27 27 27 28 28 28 28 28 28 27 27 27 27 28 29 29 29 28 27 25 24 23 22 21 20 19 18 18 17 17 17 17 17 17 17 17 17 17 17 17 17 17 17 17
26 25 25 26 27 27 27 28 28 28 28 27 27 28 27 28 27 27 25 24 23 22 21 21 20 19 19 18 18 17 17 17 17 17 17 17 17 17 17 17 17 17 17 17
24 25 25 26 27 27 26 27 27 27 27 27 28 28 28 27 27 26 25 23 23 22 21 21 20 19 19 18 18 18 17 17 17 17 17 17 17 17 17 17 17 17 17 17
24 25 25 26 26 26 26 26 27 26 27 27 28 28 28 28 27 25 24 23 22 21 20 20 19 19 18 18 18 18 17 17 17 17 17 17 17 17 17 17 17 17 17 16
23 23 24 24 25 26 25 26 26 26 27 27 27 27 28 26 25 24 23 22 21 21 20 19 19 18 18 18 18 18 17 17 17 17 17 17 17 17 17 17 17 17 17 17
23 22 23 24 25 24 24 26 26 26 27 27 26 27 26 25 24 23 22 21 20 20 19 18 18 18 17 18 18 17 17 17 17 17 17 17 17 17 17 17 16 16 16 16
21 21 22 23 23 22 25 26 26 25 26 27 26 26 25 24 21 20 19 19 19 18 18 17 17 17 17 17 17 17 17 17 17 17 17 17 16 16 16 16 16 16 16 16
21 20 21 22 22 23 24 24 24 24 24 25 25 25 23 21 20 18 17 17 17 16 16 16 16 17 17 17 17 17 17 17 16 16 16 16 16 16 16 16 16 16 16 16
20 20 20 21 20 21 23 23 23 23 23 23 23 23 21 21 22 19 16 15 15 15 15 15 15 16 16 16 16 16 16 16 16 16 15 16 16 16 16 16 16 15 15 15
19 19 19 20 20 22 22 21 22 21 22 21 21 20 20 21 20 16 15 14 14 14 14 14 15 15 15 15 15 15 15 15 15 15 15 15 15 15 15 15 15 15 15 15
20 20 19 19 19 20 20 20 20 19 18 18 19 19 18 17 15 14 14 13 13 13 13 13 14 14 14 14 15 15 14 14 14 14 14 14 14 14 14 14 14 14 14 14
19 19 19 19 19 19 18 18 17 16 17 17 17 16 15 15 14 13 13 13 13 12 12 13 13 13 13 13 14 14 13 13 14 14 14 13 13 13 13 13 13 13 13 13
19 18 18 18 18 18 17 16 16 16 16 16 15 15 14 13 13 12 12 12 12 12 12 12 12 12 12 12 13 13 12 13 13 13 13 13 13 13 13 12 12 12 12 12
18 18 17 17 17 17 16 15 15 14 14 14 13 13 13 13 12 12 11 11 11 11 11 12 12 12 12 12 12 12 12 12 12 12 12 12 12 12 12 12 11 11 11 11
17 17 16 16 16 16 15 14 13 13 13 13 13 12 12 12 11 11 11 11 11 11 11 11 11 11 11 11 11 11 11 11 11 11 11 11 11 11 11 11 11 11 10 10
Wind_Speed
12 13 14 13 12 9 7 9 9 6 4 6 7 7 4 2 4 4 6 7 8 9 10 11 11 11 12 12 13 14 15 15 13 11 10 10 9 7 7 7 9 9 9 8
10 16 16 10 9 10 11 11 10 6 3 6 8 8 3 2 3 4 5 7 8 8 9 10 11 12 12 13 13 14 15 15 14 12 10 8 8 7 6 7 8 10 9 9
18 6 9 12 12 12 12 12 10 8 7 6 8 8 4 3 4 4 5 7 8 9 10 11 12 13 13 14 14 14 15 15 14 13 10 8 7 7 7 8 7 8 9 9
15 12 8 11 13 13 13 9 8 9 10 7 5 10 3 3 4 5 6 7 8 9 10 11 12 13 13 13 14 14 15 15 15 14 13 14 11 10 9 8 7 8 9 9
12 11 13 14 13 12 9 4 7 8 10 11 8 9 4 3 4 4 5 7 8 9 10 11 12 12 12 13 13 13 14 14 15 15 15 14 12 9 8 9 9 9 8 9
13 7 9 10 9 9 6 6 7 8 10 12 7 8 6 2 2 2 5 7 8 8 9 10 11 11 11 12 12 13 13 14 15 15 15 14 13 12 11 11 11 9 8 8
15 15 13 11 11 9 10 10 9 10 10 9 3 6 5 2 1 2 5 7 8 9 9 10 11 11 11 12 13 13 14 14 14 15 14 14 14 13 13 12 12 10 9 8
13 12 14 13 16 12 13 14 12 9 9 7 4 6 3 1 2 3 5 7 9 10 10 11 11 11 11 13 13 13 14 14 14 14 14 12 13 11 11 12 11 10 8 8
9 8 7 8 10 12 12 13 13 12 12 11 7 5 3 3 4 5 7 9 10 10 11 11 12 12 12 12 13 14 14 13 13 13 12 12 12 11 11 11 10 10 8 8
7 6 7 7 8 10 10 9 7 11 11 11 9 8 4 4 5 7 8 10 11 11 11 12 12 12 12 12 12 12 13 13 13 13 11 10 11 11 10 11 11 10 9 9
9 9 8 9 10 11 9 10 10 10 10 10 10 5 0 2 4 6 8 9 11 12 13 12 11 12 12 12 12 12 13 13 12 12 12 11 10 10 11 10 11 10 10 10
7 7 10 10 5 5 10 12 12 11 11 11 11 7 4 2 4 5 7 9 10 12 13 13 13 13 13 13 13 13 13 14 13 13 12 11 10 10 11 11 12 11 11 11
3 5 9 10 10 9 10 12 13 13 12 12 13 7 6 3 3 5 7 9 10 12 13 13 13 13 13 13 13 13 14 14 14 13 12 12 11 11 11 11 12 12 11 11
3 6 11 12 6 5 9 11 11 13 13 14 14 11 5 4 4 5 7 9 10 12 13 13 13 13 13 13 13 13 13 13 13 14 13 13 12 12 12 11 11 11 11 11
4 8 10 12 10 10 12 13 13 15 16 16 14 12 8 4 3 5 7 9 10 11 12 12 12 12 12 12 12 12 12 12 13 14 13 13 12 12 11 11 11 11 10 11
3 7 9 13 12 13 15 16 16 17 17 17 16 14 6 3 3 5 7 9 10 10 10 11 11 11 11 10 10 10 11 11 12 12 12 12 11 11 11 11 11 10 11 10
5 6 9 13 12 13 16 16 17 17 17 16 17 13 6 6 6 6 7 8 9 9 9 9 9 9 9 9 8 9 9 10 11 11 11 11 11 11 11 11 10 10 10 10
7 9 8 11 10 15 10 6 10 14 15 14 13 9 7 4 3 4 5 7 7 7 7 7 7 7 7 7 7 8 8 9 9 9 9 9 9 9 9 9 9 9 8 8
8 8 8 9 13 13 10 5 7 10 13 10 10 7 5 6 7 5 5 6 6 6 6 5 6 6 7 7 7 8 8 8 7 7 7 6 7 7 8 8 8 7 6 6
6 8 9 9 11 11 5 3 5 8 12 4 5 5 7 10 8 5 8 8 8 8 7 7 7 8 8 7 8 9 8 8 6 6 5 5 4 4 5 5 5 5 5 5
7 8 11 12 12 9 3 5 4 8 4 4 3 5 8 7 2 11 11 10 10 10 10 10 10 9 9 9 10 11 10 8 7 7 7 6 6 5 4 4 3 4 5 4
7 6 8 8 10 8 5 5 4 6 8 6 4 3 5 8 13 14 13 12 12 12 12 12 11 11 10 10 11 12 11 9 10 10 10 9 7 6 6 5 5 4 4 5
5 4 4 4 5 4 6 6 7 8 7 5 1 5 10 12 14 15 14 13 12 12 12 12 13 13 12 11 11 12 11 10 11 11 11 10 10 9 8 7 6 5 4 4
4 3 5 6 7 6 7 7 7 6 3 1 6 9 12 14 16 16 14 13 13 12 12 12 14 14 13 13 13 12 11 11 12 12 11 10 10 10 10 8 7 6 6 5
5 5 6 8 8 7 6 5 3 2 4 7 9 11 13 17 17 16 14 13 12 12 12 12 13 14 14 13 13 12 11 10 11 11 10 10 10 10 10 10 9 9 9 7
5 6 6 7 6 5 4 2 3 4 6 9 13 14 15 16 17 17 15 13 12 13 13 13 14 14 14 13 13 11 10 10 10 10 9 8 8 7 7 8 9 14 11 12
Wind_Direction
196 218 224 224 231 261 268 267 268 281 322 304 298 302 293 250 230 210 197 190 190 190 182 178 180 181 180 183 184 183 182 182 176 175 177 175 175 174 175 174 170 175 174 175
201 226 231 236 237 246 249 255 260 263 305 297 299 293 278 237 229 219 209 199 192 185 177 178 180 181 185 185 185 184 186 183 182 178 176 174 166 170 171 172 169 178 178 181
217 226 218 222 224 231 240 249 265 285 296 258 285 274 218 201 206 206 207 203 195 189 185 183 187 188 186 188 188 187 186 183 182 174 164 159 157 168 170 173 175 181 184 186
231 228 213 222 227 232 241 245 265 274 276 278 293 299 267 205 221 208 202 198 193 187 187 187 189 189 188 190 190 188 185 182 181 175 174 175 181 182 181 177 174 176 186 188
218 221 222 229 233 231 245 258 260 266 271 278 261 282 297 197 245 213 193 189 188 185 186 187 188 188 187 186 185 184 183 181 179 180 181 184 188 185 173 173 169 179 184 191
233 213 228 232 231 228 222 227 238 248 257 260 268 282 291 297 285 220 183 181 183 183 182 181 181 182 185 183 180 180 179 180 180 183 185 189 186 179 172 176 176 184 183 189
227 227 225 229 227 208 216 232 237 236 237 253 231 266 288 347 304 230 185 177 177 177 176 175 177 178 179 179 178 178 180 180 180 183 187 190 186 182 181 183 184 188 186 188
215 221 214 216 225 225 219 233 245 259 262 268 211 256 294 100 145 174 176 169 170 175 175 176 177 178 179 180 177 177 179 178 179 182 185 187 187 188 189 191 188 192 194 190
215 211 175 201 214 228 222 230 248 259 267 274 266 258 244 193 194 180 175 171 174 176 175 174 175 178 178 179 177 177 176 175 177 179 181 185 188 194 191 188 194 195 195 188
231 226 193 184 196 214 242 238 230 245 257 263 258 256 265 204 200 178 177 178 176 175 174 173 175 176 175 175 173 175 175 175 178 178 180 182 188 193 192 194 198 198 194 192
232 236 211 202 215 212 204 220 233 247 257 266 272 269 87 210 201 188 178 176 176 175 173 171 171 171 171 171 171 174 174 174 179 182 183 185 187 190 193 197 201 199 196 194
217 238 239 224 223 260 235 234 228 241 246 250 268 273 106 183 207 188 174 167 172 173 170 168 167 166 170 173 175 176 178 178 181 182 182 185 186 190 196 200 201 197 197 199
190 225 233 223 213 212 230 233 237 244 254 252 257 259 132 162 186 175 170 164 167 170 168 167 167 169 172 175 178 180 183 183 181 180 183 187 189 192 198 201 199 197 198 201
252 240 250 257 265 229 228 230 233 240 246 251 252 265 222 205 195 178 171 168 166 167 168 169 170 173 174 175 178 182 186 185 182 182 185 189 193 195 196 197 196 197 199 201
257 248 253 267 276 267 259 250 240 242 252 261 266 263 259 226 205 185 173 169 167 164 165 168 169 168 171 174 178 182 184 186 185 185 190 193 194 195 198 199 200 199 201 206
256 264 263 260 259 260 259 254 249 247 251 254 261 261 260 225 182 174 173 172 170 168 165 164 164 162 167 172 177 179 182 184 184 188 193 193 193 194 198 200 201 202 204 210
243 249 259 260 258 263 253 249 249 250 250 252 254 256 228 209 195 180 172 171 168 162 158 159 162 162 164 170 175 179 181 180 183 189 193 192 193 194 198 201 201 204 205 207
246 250 253 260 256 249 254 263 263 260 257 254 257 253 226 202 150 137 156 158 152 148 145 145 149 150 154 158 164 168 167 171 178 184 188 190 192 192 193 197 201 203 204 205
228 234 245 248 248 255 255 262 269 264 260 259 255 235 202 152 139 131 124 130 130 126 122 124 130 132 130 136 145 147 149 151 156 163 169 177 186 189 192 196 200 202 202 203
200 221 238 242 251 253 263 327 304 273 255 254 248 210 190 181 203 155 124 114 109 105 103 106 109 111 111 114 121 124 124 127 133 137 141 145 152 159 174 182 186 182 183 188
206 216 231 242 247 253 329 347 300 245 274 354 278 212 200 210 147 122 120 111 105 100 97 96 96 94 95 103 108 107 105 105 108 109 107 105 108 114 117 127 144 154 159 157
240 235 231 238 242 245 1 326 291 316 332 315 284 206 158 113 114 120 117 111 104 98 96 96 93 89 88 96 101 99 95 97 99 98 94 89 84 86 95 102 104 114 126 131
242 266 268 256 268 328 333 314 311 309 302 295 231 137 128 126 125 120 114 107 100 96 95 95 94 88 80 80 89 92 91 95 96 93 90 86 81 77 77 84 92 97 101 104
235 246 247 258 265 290 312 313 305 295 293 126 126 126 127 126 122 117 110 104 100 95 93 94 93 90 82 77 77 82 88 93 93 90 88 86 82 75 67 60 62 65 65 71
275 260 252 256 268 284 303 321 339 46 88 109 117 119 122 123 119 115 110 105 101 97 92 89 90 89 87 83 80 80 82 87 89 87 85 84 81 78 73 66 54 58 54 50
264 264 264 271 284 277 298 13 70 99 109 118 120 116 117 119 117 113 108 105 103 99 95 92 89 88 88 85 81 78 78 81 87 88 84 83 83 83 85 86 79 60 66 69
Height
1495 1495 1491 1486 1484 1484 1485 1487 1486 1481 1478 1479 1477 1475 1475 1479 1481 1482 1484 1487 1489 1491 1494 1496 1498 1501 1504 1507 1510 1514 1518 1522 1527 1531 1536 1540 1544 1548 1552 1555 1557 1559 1562 1563
1493 1490 1483 1482 1485 1488 1487 1488 1483 1479 1477 1478 1476 1474 1472 1476 1479 1481 1483 1485 1488 1490 1493 1494 1497 1499 1502 1505 1508 1512 1516 1520 1524 1529 1534 1539 1543 1547 1550 1553 1556 1558 1560 1562
1484 1479 1479 1483 1485 1488 1485 1485 1482 1481 1477 1475 1476 1472 1471 1473 1477 1480 1482 1484 1486 1488 1490 1493 1495 1498 1500 1503 1506 1510 1514 1518 1522 1527 1532 1537 1541 1545 1548 1551 1554 1556 1559 1560
1479 1476 1481 1482 1482 1483 1484 1477 1480 1480 1481 1475 1477 1482 1469 1469 1472 1475 1478 1481 1483 1486 1489 1491 1493 1496 1498 1501 1504 1508 1511 1516 1520 1524 1529 1534 1538 1542 1546 1549 1552 1555 1557 1559
1476 1475 1478 1480 1477 1477 1477 1477 1478 1477 1478 1478 1473 1479 1468 1466 1469 1470 1474 1478 1481 1484 1486 1489 1491 1494 1496 1499 1502 1505 1508 1513 1517 1522 1527 1532 1537 1541 1544 1547 1550 1553 1555 1557
1469 1472 1473 1471 1471 1473 1475 1478 1478 1476 1475 1485 1475 1479 1473 1461 1464 1465 1470 1476 1479 1482 1484 1487 1489 1492 1495 1497 1500 1503 1507 1511 1515 1520 1525 1530 1534 1538 1542 1545 1548 1551 1554 1556
1472 1469 1468 1469 1471 1472 1475 1480 1487 1488 1485 1481 1469 1475 1469 1460 1461 1464 1468 1473 1477 1480 1483 1485 1488 1490 1492 1495 1498 1501 1505 1509 1513 1518 1523 1528 1532 1536 1539 1543 1546 1549 1552 1554
1472 1470 1461 1463 1467 1467 1470 1472 1486 1492 1486 1474 1469 1472 1461 1459 1463 1466 1468 1472 1476 1479 1481 1484 1486 1488 1491 1493 1496 1500 1503 1507 1511 1516 1521 1525 1530 1534 1538 1541 1544 1547 1550 1552
1463 1464 1458 1459 1460 1462 1466 1467 1460 1470 1473 1478 1468 1462 1456 1458 1461 1464 1467 1470 1474 1477 1480 1483 1485 1488 1490 1492 1495 1498 1502 1506 1510 1514 1518 1523 1527 1531 1535 1538 1542 1545 1547 1550
1456 1464 1457 1457 1460 1461 1459 1457 1464 1471 1484 1485 1472 1465 1460 1457 1458 1460 1464 1468 1471 1475 1478 1481 1484 1486 1489 1492 1494 1498 1501 1504 1508 1513 1517 1521 1525 1529 1533 1536 1539 1542 1545 1547
1455 1463 1459 1458 1459 1457 1463 1463 1463 1463 1465 1478 1479 1466 1448 1451 1454 1457 1461 1465 1469 1473 1476 1480 1483 1485 1488 1491 1494 1497 1500 1503 1507 1511 1515 1519 1523 1527 1530 1533 1536 1539 1542 1544
1457 1458 1458 1454 1451 1453 1453 1455 1459 1470 1470 1466 1469 1462 1446 1450 1452 1455 1459 1464 1468 1471 1475 1478 1481 1484 1487 1491 1494 1497 1500 1503 1506 1510 1514 1517 1521 1524 1527 1529 1532 1535 1538 1541
1459 1462 1467 1463 1460 1457 1456 1453 1452 1454 1457 1461 1466 1459 1449 1451 1453 1456 1459 1463 1467 1470 1474 1477 1480 1483 1486 1489 1493 1496 1499 1502 1506 1509 1512 1515 1519 1521 1524 1526 1528 1532 1535 1538
1461 1460 1462 1462 1453 1450 1455 1454 1453 1455 1459 1457 1455 1450 1447 1449 1452 1456 1460 1463 1466 1469 1472 1475 1479 1482 1485 1488 1491 1494 1498 1501 1504 1507 1510 1513 1516 1519 1522 1524 1526 1529 1532 1535
1460 1459 1456 1453 1450 1451 1453 1452 1452 1454 1451 1453 1447 1445 1443 1446 1451 1456 1459 1463 1465 1468 1471 1474 1477 1480 1483 1486 1489 1492 1495 1499 1502 1505 1508 1511 1514 1517 1519 1522 1524 1526 1529 1531
1461 1461 1459 1457 1452 1451 1452 1449 1448 1449 1448 1447 1446 1445 1443 1448 1453 1456 1459 1462 1464 1467 1470 1473 1476 1478 1481 1484 1487 1490 1493 1496 1499 1502 1505 1508 1511 1513 1516 1518 1521 1523 1525 1528
1459 1463 1464 1459 1451 1453 1455 1446 1444 1443 1441 1442 1444 1442 1444 1449 1453 1456 1459 1462 1464 1466 1469 1472 1474 1477 1479 1482 1485 1488 1491 1494 1496 1499 1503 1505 1508 1510 1513 1515 1518 1520 1522 1524
1463 1464 1462 1458 1459 1468 1445 1437 1438 1440 1438 1437 1438 1440 1444 1449 1454 1458 1460 1462 1464 1466 1469 1471 1473 1476 1478 1481 1483 1486 1489 1492 1494 1497 1500 1503 1505 1507 1509 1512 1514 1516 1518 1519
1462 1463 1462 1459 1458 1451 1442 1440 1442 1443 1440 1437 1438 1441 1446 1451 1455 1459 1461 1463 1465 1467 1468 1471 1473 1475 1477 1479 1482 1484 1486 1489 1492 1495 1497 1500 1502 1504 1506 1508 1510 1512 1514 1516
1461 1462 1462 1459 1463 1458 1444 1442 1443 1445 1443 1439 1440 1443 1447 1450 1450 1456 1462 1463 1465 1467 1468 1470 1472 1474 1476 1478 1481 1483 1485 1488 1490 1493 1495 1497 1499 1501 1503 1505 1507 1509 1511 1512
1459 1461 1460 1458 1458 1447 1443 1445 1445 1450 1444 1443 1443 1444 1447 1447 1449 1457 1461 1464 1466 1467 1469 1471 1473 1474 1476 1478 1480 1482 1485 1487 1490 1492 1494 1496 1498 1499 1501 1503 1505 1506 1508 1509
1454 1454 1456 1455 1457 1452 1446 1446 1448 1448 1447 1445 1444 1445 1448 1451 1454 1458 1462 1465 1467 1469 1471 1473 1474 1476 1478 1480 1482 1483 1486 1489 1491 1493 1494 1496 1497 1499 1500 1502 1503 1505 1506 1507
1453 1452 1451 1453 1453 1450 1450 1451 1450 1450 1448 1446 1446 1447 1449 1452 1457 1461 1464 1467 1470 1472 1474 1476 1476 1478 1480 1483 1484 1486 1489 1491 1492 1494 1495 1497 1498 1499 1501 1502 1503 1504 1505 1506
1451 1454 1454 1453 1449 1450 1450 1449 1449 1448 1447 1447 1447 1449 1451 1454 1459 1463 1467 1470 1473 1475 1477 1479 1480 1481 1483 1486 1487 1489 1492 1493 1495 1496 1497 1498 1500 1501 1502 1503 1504 1505 1506 1506
1451 1452 1451 1451 1450 1449 1449 1449 1448 1447 1447 1448 1449 1451 1454 1457 1462 1465 1469 1473 1476 1479 1481 1482 1484 1485 1487 1489 1492 1494 1495 1497 1498 1499 1500 1501 1502 1503 1503 1504 1504 1505 1505 1506
1452 1452 1451 1450 1449 1449 1449 1449 1449 1448 1449 1450 1452 1455 1459 1461 1465 1469 1473 1477 1480 1482 1485 1487 1489 1490 1492 1494 1496 1497 1499 1500 1501 1502 1503 1505 1505 1506 1506 1507 1507 1507 1507 1507